Tracking 23752 objects as of 23-Oct-2021
HD Live streaming from Space Station
objects crossing your sky now

AQT-D

Track AQT-D now!
10-day predictions
AQT-D is classified as:


NORAD ID: 44791
Int'l Code: 1998-067QU
Perigee: 376.2 km
Apogee: 384.5 km
Inclination: 51.6 °
Period: 92.0 minutes
Semi major axis: 6751 km
RCS: Unknown
Launch date: November 20, 1998
Source: Japan (JPN)
Launch site: TYURATAM MISSILE AND SPACE COMPLEX (TTMTR)

Uplink (MHz):
Downlink (MHz):
Beacon (MHz):
Mode:
Call sign:
Status: Unknown

aabbcc
Your satellite tracking list
Your tracking list is empty




NASA's NSSDC Master Catalog

Two Line Element Set (TLE):
1 44791U 98067QW  21295.73374705  .00024993  00000-0  25383-3 0  9991
2 44791  51.6378  37.8113 0006135  14.8167 345.3007 15.65020037109340
Source of the keplerian elements: AFSPC